Location: G�ppingen
(48.7089°N, 9.6563°E)
Time: 01:30:41
(UTC+02:00)

ISS - Visible Passes

Search period start: 25 May 2018 00:00
Search period end: 04 June 2018 00:00
Orbit: 402 x 407 km, 51.6° (Epoch: 25 May)

Date Brightness Start Highest point End Pass type
(mag) Time Alt. Az. Time Alt. Az. Time Alt. Az.
25 May -2.9 00:29:38 10° WNW 00:32:50 49° N 00:35:43 12° E visible
25 May -2.9 02:06:11 10° WNW 02:08:18 36° WNW 02:08:18 36° WNW visible
25 May -3.8 22:00:35 10° WSW 22:03:52 89° NW 22:07:09 10° ENE visible
25 May -2.8 23:37:22 10° WNW 23:40:33 48° N 23:43:44 10° ENE visible
26 May -3.8 01:13:59 10° WNW 01:17:14 78° N 01:17:14 78° N visible
26 May -2.9 22:45:03 10° W 22:48:15 51° N 22:51:28 10° ENE visible
27 May -3.3 00:21:46 10° WNW 00:25:01 60° NNE 00:26:25 30° E visible
27 May -1.5 01:58:20 10° WNW 01:59:02 15° W 01:59:02 15° W visible
27 May -3.2 21:52:42 10° W 21:55:57 61° NNW 21:59:12 10° ENE visible
27 May -3.0 23:29:30 10° WNW 23:32:42 51° N 23:35:42 12° E visible
28 May -3.0 01:06:02 10° WNW 01:08:19 39° W 01:08:19 39° W visible
28 May -2.8 22:37:12 10° WNW 22:40:23 48° N 22:43:34 10° ENE visible
29 May -3.9 00:13:47 10° WNW 00:17:04 87° NNE 00:17:38 58° ESE visible
29 May -3.5 23:21:32 10° WNW 23:24:48 65° NNE 23:27:01 19° E visible
30 May -2.0 00:58:09 10° W 00:59:38 22° W 00:59:38 22° W visible
30 May -3.1 22:29:15 10° WNW 22:32:28 53° N 22:35:41 10° E visible
31 May -3.7 00:05:47 10° WNW 00:09:00 54° SSW 00:09:01 54° SSW visible
31 May -3.9 23:13:28 10° WNW 23:16:45 83° SSW 23:18:27 26° ESE visible
01 Jun -1.3 00:50:33 10° W 00:51:05 12° WSW 00:51:05 12° WSW visible
01 Jun -3.6 22:21:10 10° WNW 22:24:28 72° NNE 22:27:43 10° ESE visible
01 Jun -2.7 23:57:52 10° W 00:00:31 28° SW 00:00:31 28° SW visible
02 Jun -3.4 23:05:25 10° WNW 23:08:35 46° SSW 23:09:59 27° SSE visible
03 Jun -3.8 22:13:03 10° WNW 22:16:19 72° SSW 22:19:28 11° ESE visible
03 Jun -1.7 23:50:22 10° W 23:52:06 15° SW 23:52:06 15° SW visible
